Location: Bluff Heights
(33.7692°N, 118.1592°W)
Time: 06:35:29
(UTC+00:00)

First-Move - Pass Details

Date: 30 September 2021
Orbit: 574 x 666 km, 97.6° (Epoch: 16 October)

Event Time Altitude Azimuth Distance (km) Brightness Sun altitude
Rises 12:22:12 0° 12° (NNE) 2,830 ? -18.3°
Reaches altitude 10° 12:24:23 10° 14° (NNE) 1,914 ? -17.9°
Maximum altitude 12:28:32 82° 101° (ESE) 589 ? -17.0°
Drops below altitude 10° 12:32:35 10° 190° (S) 1,876 ? -16.2°
Sets 12:34:43 0° 191° (S) 2,767 ? -15.7°
